Tupelo, MS

2:19 AM CDT on April 27, 2017 (GMT -0500)
Tupelo Regional

Weather History for KTUP - July, 2013

Change the Weather History Date:

Saturday, July 20, 2013

  Actual Average Record
Temperature  
Mean Temperature 83 °F 82 °F  
Max Temperature 93 °F 92 °F 102 °F (1986)
Min Temperature 73 °F 71 °F 57 °F (1976)
Degree Days  
Heating Degree Days 0 0  
Month to date heating degree days 0 0  
Since 1 June heating degree days 0 0  
Since 1 July heating degree days 0 0  
Cooling Degree Days 18 17  
Month to date cooling degree days 306 329  
Year to date cooling degree days 968 1001  
Since 1 June cooling degree days 722 724  
Growing Degree Days 33 (Base 50)    
Moisture  
Dew Point 71 °F    
Average Humidity 71    
Maximum Humidity 93    
Minimum Humidity 49    
Precipitation  
Precipitation 0.55 in 0.11 in 2.73 in (1956)
Month to date precipitation 1.13 2.59  
Year to date precipitation 31.60 31.71  
Snow  
Snow 0.00 in 0.00 in - ()
Month to date snowfall 0.0 0.0  
Since 1 June snowfall 0.0 0.0  
Since 1 July snowfall 0.0 0.0  
Snow Depth 0.00 in    
Sea Level Pressure  
Sea Level Pressure 29.95 in    
Wind  
Wind Speed 5 mph (South)    
Max Wind Speed 22 mph    
Max Gust Speed 25 mph    
Visibility 9 miles    
Events Rain , Thunderstorm    
T = Trace of Precipitation, MM = Missing Value Source: NWS Daily Summary

Daily Weather History Graph

Daily Weather History Graph

Search for Another Location

Airport or City:

Trip Planner

Search our weather history database for the weather conditions in past years. The results will help you decide how hot, cold, wet, or windy it might be!

Date:

Astronomy

Jul. 20, 2013 Rise Set
Actual Time 5:57 AM CDT 8:04 PM CDT
Civil Twilight 5:29 AM CDT 8:33 PM CDT
Nautical Twilight 4:54 AM CDT 9:07 PM CDT
Astronomical Twilight 4:17 AM CDT 9:44 PM CDT
Moon 6:08 PM CDT (7/20) 3:37 AM CDT (7/20)
Length of Visible Light 15h 03m
Length of Day
14h 07m
Waxing Gibbous, 94% of the Moon is Illuminated
Jul 20
Waxing Gibbous
Jul 22
Full
Jul 29
Last Quarter
Aug 6
New
Aug 14
First Quarter

Hourly Weather History & Observations

Time (CDT) Temp. Heat Index Dew Point Humidity Pressure Visibility Wind Dir Wind Speed Gust Speed Precip Events Conditions
12:53 AM 75.9 °F - 71.1 °F 85% 29.98 in 10.0 mi SSE 4.6 mph - N/A   Clear
1:53 AM 73.9 °F - 70.0 °F 87% 29.97 in 10.0 mi SSW 4.6 mph - N/A   Clear
2:53 AM 73.0 °F - 71.1 °F 93% 29.96 in 10.0 mi SSW 3.5 mph - N/A   Clear
3:53 AM 73.9 °F - 71.1 °F 91% 29.97 in 10.0 mi Calm Calm - N/A   Clear
4:53 AM 73.9 °F - 71.1 °F 91% 29.97 in 10.0 mi Calm Calm - N/A   Clear
5:53 AM 73.0 °F - 71.1 °F 93% 29.99 in 10.0 mi Calm Calm - N/A   Clear
6:53 AM 73.9 °F - 70.0 °F 87% 30.00 in 10.0 mi Calm Calm - N/A   Clear
7:53 AM 78.1 °F - 71.1 °F 79% 29.99 in 10.0 mi West 5.8 mph - N/A   Clear
8:53 AM 82.0 °F 86.7 °F 72.0 °F 71% 30.00 in 10.0 mi WSW 4.6 mph - N/A   Clear
9:53 AM 86.0 °F 92.2 °F 72.0 °F 63% 29.99 in 10.0 mi SW 4.6 mph - N/A   Clear
10:53 AM 89.1 °F 94.1 °F 70.0 °F 53% 29.98 in 10.0 mi SSW 9.2 mph - N/A   Scattered Clouds
11:53 AM 91.0 °F 95.6 °F 69.1 °F 48% 29.98 in 10.0 mi South 6.9 mph - N/A   Mostly Cloudy
12:53 PM 91.0 °F 97.6 °F 71.1 °F 52% 29.96 in 10.0 mi Variable 6.9 mph - N/A   Overcast
1:08 PM 87.8 °F 92.6 °F 69.8 °F 55% 29.97 in 10.0 mi SSW 6.9 mph - N/A Thunderstorm Overcast
1:21 PM 89.6 °F 94.7 °F 69.8 °F 52% 29.96 in 10.0 mi South 9.2 mph - N/A Thunderstorm Scattered Clouds
1:53 PM 82.0 °F 85.9 °F 70.0 °F 67% 29.95 in 10.0 mi SSE 10.4 mph - N/A Thunderstorm Thunderstorm
2:00 PM 80.6 °F 84.6 °F 71.6 °F 74% 29.99 in 1.5 mi SSE 21.9 mph 25.3 mph 0.02 in Rain , Thunderstorm Heavy Thunderstorms and Rain
2:09 PM 75.2 °F - 69.8 °F 83% 29.97 in 0.8 mi ESE 12.7 mph 23.0 mph 0.45 in Rain , Thunderstorm Heavy Thunderstorms and Rain
2:14 PM 75.2 °F - 69.8 °F 83% 29.97 in 2.0 mi East 11.5 mph - 0.51 in Rain , Thunderstorm Thunderstorms and Rain
2:22 PM 75.2 °F - 71.6 °F 89% 29.96 in 5.0 mi ESE 9.2 mph - 0.54 in Rain , Thunderstorm Thunderstorms and Rain
2:53 PM 80.1 °F 84.2 °F 73.0 °F 79% 29.95 in 10.0 mi SE 8.1 mph - 0.55 in Thunderstorm Thunderstorm
3:07 PM 84.2 °F 90.9 °F 73.4 °F 70% 29.95 in 10.0 mi South 9.2 mph - N/A   Clear
3:24 PM 87.8 °F 95.6 °F 73.4 °F 62% 29.94 in 10.0 mi South 8.1 mph - N/A Thunderstorm Clear
3:53 PM 90.0 °F 96.4 °F 71.1 °F 54% 29.92 in 10.0 mi SSW 8.1 mph - N/A Thunderstorm Thunderstorm
4:09 PM 89.6 °F 96.2 °F 71.6 °F 55% 29.92 in 10.0 mi South 9.2 mph - N/A   Clear
4:53 PM 91.0 °F 95.6 °F 69.1 °F 48% 29.89 in 10.0 mi WSW 9.2 mph - N/A   Clear
5:53 PM 90.0 °F 93.6 °F 68.0 °F 48% 29.86 in 10.0 mi SSW 8.1 mph - N/A   Clear
6:53 PM 89.1 °F 94.1 °F 70.0 °F 53% 29.89 in 10.0 mi SW 5.8 mph - N/A   Clear
7:53 PM 84.9 °F 90.1 °F 71.1 °F 63% 29.91 in 10.0 mi Calm Calm - N/A   Clear
8:53 PM 82.9 °F 88.0 °F 72.0 °F 69% 29.93 in 10.0 mi Calm Calm - N/A   Clear
9:53 PM 81.0 °F 85.8 °F 73.0 °F 77% 29.94 in 10.0 mi Calm Calm - N/A   Mostly Cloudy
10:53 PM 78.1 °F - 72.0 °F 81% 29.94 in 10.0 mi SSW 5.8 mph - N/A   Clear
11:53 PM 77.0 °F - 72.0 °F 84% 29.95 in 10.0 mi South 5.8 mph - N/A   Clear